Regional Weather Roundup
Issued by NWS Charleston, WV

Current Version | Previous Version | Text Only | Print | Product List | Glossary On
Versions: 1 2 3 4 5 6 7 8 9 10 11 12 13 14 15 16 17 18 19 20 21 22 23 24 25 26 27 28 29 30 31 32 33 34 35 36 37 38 39 40 41 42 43 44 45 46 47 48 49 50
000
ASUS41 KRLX 051310
RWRRLX
West Virginia Regional Weather Roundup
National Weather Service Charleston WV
900 AM EDT SUN JUL 05 2015

Note: "fair" indicates few or no clouds below 12,000 feet with no
significant weather and/or obstructions to visibility.

WVZ003-051400-
Northern Panhandle of West Virginia

CITY           SKY/WX    TMP DP  RH WIND       PRES   REMARKS
WHEELING       MOSUNNY   68  59  73 CALM      30.16R
$$

WVZ009-051400-
Northwest West Virginia

CITY           SKY/WX    TMP DP  RH WIND       PRES   REMARKS
PARKERSBURG    CLOUDY    65  63  93 E3        30.15S FOG
$$

WVZ006-051400-
Western West Virginia

CITY           SKY/WX    TMP DP  RH WIND       PRES   REMARKS
HUNTINGTON     CLOUDY    66  64  93 NE3       30.10R
$$

WVZ015-051400-
West Central West Virginia

CITY           SKY/WX    TMP DP  RH WIND       PRES   REMARKS
CHARLESTON     CLOUDY    67  66  97 NE3       30.11S FOG
$$

WVZ022-031-051400-
North Central West Virginia

CITY           SKY/WX    TMP DP  RH WIND       PRES   REMARKS
CLARKSBURG     MOSUNNY   65  63  93 CALM      30.15S FOG
MORGANTOWN     MOSUNNY   69  61  75 CALM      30.16S
$$

WVZ025-035-042-045-051400-
Southern West Virginia

CITY           SKY/WX    TMP DP  RH WIND       PRES   REMARKS
BECKLEY        CLOUDY    66  62  87 SE5       30.18S
LOGAN          CLOUDY    68  66  94 CALM      30.10S FOG
BLUEFIELD      LGT RAIN  68  63  84 VRB3      30.20R
LEWISBURG      CLOUDY    63  61  93 N5        30.20R FOG
$$

WVZ047-051400-
Northern Mountains of West Virginia

CITY           SKY/WX    TMP DP  RH WIND       PRES   REMARKS
ELKINS         CLOUDY    60  58  92 CALM      30.20S FOG
$$

WVZ052-051400-
Eastern Panhandle of West Virginia

CITY           SKY/WX    TMP DP  RH WIND       PRES   REMARKS
MARTINSBURG    CLOUDY    68  64  87 CALM      30.17R FOG
PETERSBURG     CLOUDY    65  63  93 CALM      30.18S FOG
$$



USA.gov is the U.S. government's official web portal to all federal, state and local government web resources and services.